Wind_Speed
26 26 26 25 25 25 24 24 24 24 24 23 22 22 22 22 22 22 22 21 21 21 21 21 20 20 19 19 18 18 18 19 18 18 18 18 17 18 18 18 19 19 19
26 26 26 26 26 26 25 25 25 24 24 24 24 23 23 22 22 23 23 23 22 21 21 21 21 20 20 20 20 20 20 21 20 20 20 20 19 19 19 19 20 19 20
26 26 26 26 26 26 25 25 25 25 25 25 25 25 25 24 23 23 23 23 23 23 23 22 22 22 21 21 21 22 22 22 22 21 21 22 22 21 21 21 21 21 21
25 26 26 26 26 26 25 25 26 26 26 26 27 26 25 25 25 24 24 24 24 24 24 24 23 23 23 22 22 23 22 22 22 22 22 22 22 22 22 21 22 22 23
26 26 26 26 25 25 25 26 26 27 27 27 27 26 25 25 25 25 24 24 25 24 25 25 25 25 25 25 24 23 23 23 23 22 23 23 22 22 23 22 22 23 23
26 26 26 25 25 25 25 25 26 26 27 27 27 27 27 26 26 25 25 25 26 26 25 25 25 25 25 25 25 25 25 24 24 23 23 23 23 23 23 24 24 23 23
26 26 26 26 26 26 26 26 25 25 26 26 27 27 26 26 26 27 27 25 25 25 25 25 25 25 26 26 25 25 25 25 25 24 24 24 24 24 24 25 25 25 25
27 27 27 27 26 26 27 26 26 26 26 26 26 26 26 26 26 26 27 25 25 25 25 25 25 25 26 26 25 25 25 25 25 25 25 25 25 25 25 25 25 25 26
28 27 27 26 26 27 27 27 27 27 26 27 27 27 26 26 26 26 27 26 26 26 25 25 25 26 27 27 26 26 26 26 26 26 26 26 26 27 27 27 26 27 26
30 28 27 27 27 27 27 27 27 27 27 27 27 27 27 26 26 26 26 27 26 26 25 25 26 27 27 27 27 27 27 27 27 27 27 27 27 27 28 27 27 27 28
29 28 28 28 28 28 28 28 28 27 27 27 26 26 26 25 25 25 26 27 27 27 27 26 27 27 27 28 28 27 27 27 28 28 28 28 28 28 28 28 28 28 29
28 28 28 28 28 28 28 29 29 28 28 27 27 26 25 25 25 25 26 26 27 27 28 28 27 27 28 28 28 28 28 28 28 29 29 29 29 29 29 29 29 30 29
28 29 29 29 28 29 29 29 28 27 27 27 27 26 25 25 25 26 26 27 26 26 27 27 27 27 28 28 29 29 29 29 29 29 29 29 29 29 29 29 29 30 30
29 29 30 29 29 29 29 29 28 27 26 26 25 25 26 25 26 26 27 27 27 27 28 27 27 27 28 29 29 29 29 30 30 30 30 30 30 29 30 29 30 30 30
27 28 29 28 28 28 28 28 27 27 26 26 25 26 27 27 26 26 27 27 27 27 27 27 27 27 28 28 29 29 29 29 31 30 30 30 30 30 30 29 29 30 30
27 26 26 27 27 28 28 27 26 26 26 26 26 27 27 27 27 27 26 26 26 27 27 27 27 28 28 28 28 28 28 29 30 31 31 31 31 30 29 29 29 29 29
26 25 26 26 26 27 26 26 26 26 26 27 27 27 26 26 26 26 25 26 26 27 27 27 27 28 28 28 28 28 28 29 29 30 30 31 31 30 30 29 29 28 28
26 26 26 26 25 25 25 25 25 25 26 25 25 25 25 24 24 25 25 25 25 25 26 26 27 27 27 27 28 29 29 29 29 30 30 29 29 29 29 29 28 28 29
25 25 25 25 25 24 24 24 24 23 23 23 23 22 21 21 22 22 22 22 23 24 24 25 25 26 27 28 28 29 29 29 29 29 28 28 27 28 27 27 27 27 28
26 26 25 24 23 23 23 23 22 21 21 20 20 20 20 20 20 20 20 21 22 22 23 24 24 26 26 27 28 28 28 28 28 27 27 26 26 26 26 25 26 27 27
24 24 24 23 22 22 22 22 21 20 21 21 20 20 20 19 19 20 20 20 21 21 21 22 23 24 25 25 25 26 26 26 25 25 25 25 25 25 24 24 24 25 26
23 22 21 21 20 21 21 22 22 22 22 22 21 20 19 19 19 20 21 20 20 20 20 21 21 22 23 24 24 24 24 24 23 23 23 23 23 23 23 23 24 24 25
20 19 19 19 20 21 21 22 23 23 23 22 21 19 18 19 19 19 20 20 19 19 20 21 21 21 22 22 22 23 22 22 23 23 22 22 23 24 24 24 24 24 24
18 17 16 17 18 19 20 20 20 20 19 19 20 19 19 19 19 20 20 20 20 20 20 20 21 21 22 22 22 23 23 23 22 22 22 22 23 23 24 23 24 24 24
17 16 15 16 16 17 18 18 18 18 19 19 19 20 20 20 20 21 20 20 20 20 20 20 21 22 23 23 23 23 24 24 23 22 22 22 22 23 23 22 23 23 23
15 15 15 15 16 17 18 18 19 18 19 19 19 20 21 21 21 21 20 20 21 21 21 21 22 23 23 23 23 23 23 23 23 22 21 21 21 21 22 22 22 22 23
Wind_Direction
274 274 274 275 278 280 280 282 282 281 281 282 283 284 283 281 280 279 279 279 279 278 276 277 279 280 280 281 283 283 282 284 286 286 286 286 285 287 287 287 287 289 288
274 276 275 277 279 279 280 281 281 281 280 279 281 284 284 282 280 278 277 276 277 278 277 277 278 278 280 280 281 282 283 284 285 285 284 284 283 285 285 286 286 287 288
274 276 275 276 279 278 280 283 283 283 283 283 283 282 282 280 281 281 277 275 275 276 277 278 278 279 279 279 281 282 282 282 283 285 285 284 283 285 285 284 285 286 287
275 276 276 277 278 279 280 282 283 284 284 285 284 284 282 279 279 279 278 275 274 276 276 277 278 279 279 280 281 281 281 282 284 284 284 284 283 285 286 285 285 286 286
274 274 276 277 278 279 280 281 282 283 285 284 284 282 281 281 280 277 278 278 275 274 275 275 274 276 278 280 280 279 281 284 283 283 284 283 284 286 286 285 285 286 286
271 273 276 278 280 280 280 280 281 282 282 282 282 281 279 279 279 277 277 279 278 275 275 274 273 275 277 278 278 278 280 281 281 281 283 283 282 283 285 285 284 284 285
274 274 276 277 277 279 279 279 280 280 280 280 279 279 278 278 278 276 276 277 277 276 273 273 273 275 276 276 276 278 278 279 280 281 282 282 282 281 281 282 283 284 285
274 274 275 277 276 278 279 279 279 279 279 279 279 278 278 277 277 276 275 274 275 274 273 273 273 275 276 276 277 278 278 278 279 279 279 280 280 280 281 280 281 282 284
273 273 273 275 277 278 278 278 278 278 278 278 278 277 276 276 276 276 276 272 271 272 273 273 274 274 276 276 277 277 277 277 278 278 278 279 279 279 280 281 281 281 281
271 272 272 273 275 276 277 278 278 277 277 278 276 275 275 275 277 277 275 271 270 270 272 274 275 275 276 276 276 276 276 276 277 277 278 279 279 279 280 280 281 281 281
270 271 272 274 275 274 275 276 278 277 276 276 276 276 277 277 278 277 274 271 270 271 272 274 274 274 275 276 276 276 276 276 276 277 277 278 278 278 278 278 279 280 281
271 271 270 272 274 274 274 275 275 276 276 276 275 275 275 277 276 276 275 274 274 272 272 274 273 273 274 276 276 276 277 277 277 277 277 278 278 277 277 277 278 279 280
271 269 268 272 273 274 273 273 273 273 275 276 275 273 273 275 275 275 274 275 275 274 274 276 276 275 276 277 279 278 277 277 277 278 278 278 278 277 277 276 277 280 281
271 270 270 273 273 273 272 272 273 272 273 274 273 272 273 275 275 275 276 276 275 274 275 276 278 279 280 281 282 281 280 279 279 279 279 279 279 278 277 277 276 278 280
271 271 270 273 272 271 271 272 272 271 271 272 272 272 272 274 275 275 278 277 276 276 276 275 277 280 281 281 282 283 283 282 279 279 279 278 278 278 277 277 278 278 278
271 269 269 271 272 270 270 270 269 270 270 271 273 273 273 276 277 277 276 277 277 276 276 277 278 280 281 281 281 282 284 284 283 282 280 279 279 278 278 278 279 278 278
270 267 268 269 270 269 269 270 270 269 269 271 273 273 274 277 278 278 278 278 278 279 278 279 279 280 281 281 281 283 284 284 285 284 282 279 278 278 278 278 278 280 278
269 268 268 269 270 270 270 270 271 270 269 270 272 274 275 277 280 280 279 278 278 279 280 281 281 281 282 282 283 283 283 284 285 285 281 280 278 278 277 277 277 279 280
268 268 269 268 268 269 270 271 271 271 269 270 270 273 276 279 281 280 280 280 280 282 283 283 282 282 282 283 283 283 283 283 283 283 280 280 280 277 276 277 277 279 280
268 267 266 265 265 267 269 269 269 270 270 271 269 271 275 278 278 279 282 283 284 286 287 287 286 286 286 286 286 284 283 283 282 281 280 279 279 277 276 277 279 279 280
267 267 263 263 265 266 267 267 267 267 268 270 271 272 274 273 275 278 282 286 289 290 290 291 291 290 288 287 286 286 285 284 282 280 279 277 276 277 277 277 277 280 283
266 263 260 262 264 265 265 264 264 266 267 269 267 270 274 274 277 281 284 286 288 291 293 293 293 292 290 290 290 290 288 287 285 283 281 279 277 276 277 278 279 281 284
266 264 260 261 265 267 267 268 268 267 267 267 267 271 276 277 281 284 286 287 287 289 292 294 296 296 295 295 294 293 291 290 289 286 283 280 279 277 278 279 280 282 282
268 269 266 264 267 268 269 269 267 266 265 266 269 273 276 279 282 284 287 288 288 289 291 293 296 297 296 295 294 294 294 292 290 287 284 284 283 280 280 281 282 282 282
272 271 270 270 271 273 272 270 269 269 268 269 272 274 278 280 282 283 284 286 289 290 292 295 297 298 297 294 292 292 292 292 290 288 285 285 286 283 281 281 280 280 281
272 271 271 273 274 274 274 273 272 272 272 271 273 275 278 280 283 283 285 287 289 291 292 294 297 299 299 297 294 294 294 292 289 287 285 285 286 284 281 280 280 280 282
Height
5837 5837 5837 5837 5837 5837 5837 5836 5836 5836 5836 5836 5835 5835 5834 5834 5833 5833 5833 5833 5833 5833 5832 5832 5832 5832 5831 5831 5831 5830 5830 5829 5829 5829 5828 5828 5827 5827 5826 5826 5825 5825 5824
5830 5830 5831 5831 5831 5831 5831 5831 5830 5830 5830 5829 5829 5829 5828 5828 5827 5827 5827 5827 5827 5827 5827 5827 5827 5827 5826 5826 5826 5825 5825 5824 5824 5824 5824 5823 5822 5821 5821 5821 5820 5819 5819
5823 5823 5824 5824 5824 5824 5824 5824 5823 5823 5823 5823 5823 5823 5822 5822 5821 5821 5821 5821 5821 5821 5821 5821 5821 5821 5821 5820 5820 5820 5819 5819 5818 5818 5818 5817 5817 5816 5815 5815 5814 5813 5813
5816 5816 5817 5817 5817 5817 5817 5817 5816 5816 5816 5816 5816 5816 5815 5815 5815 5814 5814 5814 5815 5815 5815 5815 5815 5815 5815 5814 5814 5814 5813 5812 5812 5812 5811 5811 5810 5810 5809 5809 5808 5807 5806
5809 5809 5809 5810 5810 5810 5810 5810 5809 5809 5809 5809 5808 5808 5808 5808 5808 5807 5807 5807 5807 5808 5808 5808 5808 5808 5808 5808 5808 5807 5806 5806 5805 5805 5805 5805 5804 5803 5803 5802 5801 5801 5800
5802 5802 5802 5802 5803 5803 5803 5803 5802 5802 5802 5801 5801 5801 5801 5801 5801 5800 5800 5800 5800 5800 5800 5800 5801 5801 5801 5801 5800 5800 5800 5799 5799 5799 5798 5798 5797 5796 5796 5795 5795 5794 5794
5795 5795 5795 5795 5796 5796 5796 5795 5795 5794 5794 5794 5793 5793 5793 5793 5793 5793 5793 5792 5793 5793 5793 5793 5793 5793 5793 5793 5793 5793 5792 5792 5792 5792 5791 5790 5790 5789 5789 5788 5788 5787 5787
5788 5788 5788 5788 5788 5788 5788 5788 5787 5787 5786 5786 5785 5786 5786 5786 5785 5785 5785 5785 5785 5785 5785 5786 5786 5786 5785 5785 5785 5785 5785 5784 5784 5784 5783 5783 5782 5782 5781 5781 5780 5780 5780
5781 5781 5781 5781 5781 5781 5781 5780 5779 5779 5779 5778 5778 5778 5778 5778 5777 5777 5777 5777 5777 5778 5778 5778 5778 5778 5778 5778 5778 5777 5777 5776 5776 5776 5776 5775 5775 5774 5773 5773 5773 5773 5772
5773 5773 5773 5773 5773 5773 5773 5772 5771 5771 5771 5770 5770 5770 5770 5770 5769 5769 5769 5769 5770 5770 5770 5771 5771 5771 5770 5770 5769 5769 5769 5769 5768 5768 5768 5767 5767 5766 5766 5765 5765 5764 5764
5765 5765 5765 5765 5765 5765 5764 5764 5764 5763 5762 5762 5762 5762 5762 5762 5761 5761 5761 5761 5761 5762 5762 5763 5762 5762 5762 5762 5761 5761 5761 5761 5760 5760 5760 5759 5759 5758 5758 5757 5757 5756 5755
5757 5757 5756 5756 5756 5756 5756 5755 5755 5755 5754 5754 5754 5754 5754 5754 5754 5754 5753 5753 5753 5754 5754 5755 5755 5754 5754 5754 5753 5753 5752 5752 5752 5751 5751 5751 5750 5750 5749 5749 5748 5747 5746
5748 5748 5748 5748 5748 5748 5747 5747 5746 5746 5746 5746 5746 5746 5746 5746 5747 5746 5746 5746 5745 5746 5746 5747 5747 5747 5746 5746 5745 5745 5744 5744 5743 5743 5742 5742 5741 5741 5740 5740 5739 5738 5738
5739 5739 5739 5739 5739 5739 5738 5738 5738 5739 5738 5737 5737 5738 5738 5738 5738 5738 5737 5738 5738 5738 5738 5738 5739 5738 5738 5738 5737 5737 5736 5735 5735 5734 5733 5733 5732 5732 5731 5731 5730 5730 5729
5730 5730 5730 5731 5731 5730 5730 5731 5731 5731 5731 5730 5730 5730 5730 5730 5730 5729 5729 5729 5730 5730 5730 5730 5730 5730 5730 5729 5729 5728 5728 5727 5726 5726 5725 5724 5724 5723 5722 5722 5721 5721 5720
5722 5722 5723 5723 5723 5722 5723 5723 5723 5723 5723 5723 5722 5722 5722 5722 5722 5722 5722 5721 5721 5721 5721 5722 5722 5722 5721 5721 5720 5720 5719 5718 5717 5716 5715 5715 5714 5714 5713 5713 5712 5711 5710
5714 5714 5715 5715 5715 5715 5715 5715 5716 5716 5716 5715 5715 5715 5714 5714 5714 5713 5713 5713 5713 5713 5713 5713 5713 5713 5712 5712 5711 5711 5710 5709 5708 5707 5706 5705 5705 5705 5704 5704 5703 5702 5701
5707 5707 5707 5708 5708 5708 5708 5708 5708 5708 5709 5709 5709 5708 5707 5707 5707 5706 5706 5706 5705 5705 5705 5705 5704 5704 5703 5703 5702 5702 5701 5700 5699 5698 5697 5696 5695 5695 5695 5694 5694 5693 5692
5700 5700 5700 5700 5700 5701 5701 5701 5701 5701 5701 5701 5701 5701 5701 5701 5700 5700 5699 5699 5698 5697 5697 5696 5696 5695 5694 5693 5693 5692 5691 5691 5690 5689 5688 5687 5686 5686 5685 5685 5685 5684 5683
5693 5693 5693 5693 5694 5694 5694 5694 5695 5695 5695 5695 5695 5695 5695 5695 5694 5694 5693 5692 5691 5690 5689 5688 5687 5686 5685 5684 5683 5683 5682 5681 5680 5680 5679 5678 5678 5677 5677 5676 5676 5675 5675
5685 5685 5685 5686 5687 5687 5687 5688 5688 5688 5688 5689 5689 5689 5689 5689 5688 5688 5687 5686 5685 5684 5683 5681 5680 5679 5677 5676 5675 5674 5673 5673 5672 5671 5670 5670 5670 5669 5669 5668 5668 5667 5666
5678 5678 5678 5679 5680 5680 5680 5681 5681 5682 5682 5682 5682 5682 5682 5682 5682 5682 5681 5680 5679 5677 5676 5674 5673 5671 5670 5668 5668 5667 5666 5665 5664 5663 5663 5662 5662 5661 5661 5660 5659 5659 5658
5670 5671 5671 5672 5673 5673 5673 5674 5674 5675 5676 5676 5676 5676 5675 5675 5675 5675 5675 5674 5672 5671 5670 5668 5666 5665 5663 5662 5661 5660 5659 5658 5657 5656 5655 5655 5654 5654 5653 5652 5652 5651 5650
5663 5664 5664 5665 5666 5666 5667 5667 5667 5668 5669 5669 5670 5670 5669 5668 5669 5669 5668 5667 5666 5665 5664 5662 5660 5659 5657 5656 5654 5653 5652 5651 5650 5649 5648 5648 5647 5646 5646 5645 5644 5643 5642
5658 5659 5659 5660 5660 5660 5660 5661 5661 5662 5662 5663 5664 5664 5664 5663 5663 5662 5662 5661 5659 5658 5657 5656 5654 5653 5651 5649 5648 5646 5645 5644 5643 5642 5641 5640 5640 5639 5638 5637 5636 5635 5634
5653 5653 5654 5655 5654 5654 5655 5655 5655 5656 5656 5657 5658 5657 5657 5657 5656 5656 5655 5654 5653 5652 5651 5649 5648 5646 5644 5642 5641 5639 5638 5637 5636 5635 5634 5633 5632 5631 5631 5630 5629 5628 5627